This is the latest recevied weather packets stored in our database for station/object LX0APE-4. If no packets are shown the sender has not sent any weather packets the latest 10 day(s).
| Time | Temp. | Humidity | Pressure | Rain* | Wind** | Luminosity | Snow |
|---|---|---|---|---|---|---|---|
| 1776944841 | 19.44° C | 32% | 5023.6 hPa | 0 mm | - | - | - |
| 1776944541 | 19.44° C | 33% | 5023.7 hPa | 0 mm | - | - | - |
| 1776944241 | 19.44° C | 33% | 5023.7 hPa | 0 mm | - | - | - |
| 1776943941 | 18.89° C | 34% | 5023.6 hPa | 0 mm | - | - | - |
| 1776943641 | 18.89° C | 34% | 5023.8 hPa | 0 mm | - | - | - |
| 1776943341 | 18.89° C | 35% | 5024 hPa | 0 mm | - | - | - |
| 1776943043 | 18.33° C | 35% | 5023.8 hPa | 0 mm | - | - | - |
| 1776942741 | 18.33° C | 34% | 5023.8 hPa | 0 mm | - | - | - |
| 1776942441 | 17.78° C | 35% | 5023.9 hPa | 0 mm | - | - | - |
| 1776942141 | 17.78° C | 36% | 5024 hPa | 0 mm | - | - | - |
| 1776941841 | 17.22° C | 37% | 5024.3 hPa | 0 mm | - | - | - |
| 1776941542 | 17.22° C | 37% | 5024.3 hPa | 0 mm | - | - | - |
| 1776941241 | 17.22° C | 36% | 5024.1 hPa | 0 mm | - | - | - |
| 1776940941 | 17.22° C | 36% | 5024.2 hPa | 0 mm | - | - | - |
| 1776940641 | 17.22° C | 38% | 5024.3 hPa | 0 mm | - | - | - |
| 1776940341 | 16.67° C | 38% | 5024.4 hPa | 0 mm | - | - | - |
| 1776940041 | 16.67° C | 39% | 5024.4 hPa | 0 mm | - | - | - |
| 1776939741 | 16.11° C | 41% | 5024.6 hPa | 0 mm | - | - | - |
| 1776939441 | 15.56° C | 41% | 5024.6 hPa | 0 mm | - | - | - |
| 1776939141 | 15.56° C | 41% | 5024.6 hPa | 0 mm | - | - | - |
| 1776938841 | 15.56° C | 43% | 5024.4 hPa | 0 mm | - | - | - |
| 1776938541 | 15° C | 42% | 5024.7 hPa | 0 mm | - | - | - |
| 1776938241 | 15° C | 45% | 5024.6 hPa | 0 mm | - | - | - |
| 1776937941 | 15° C | 45% | 5024.7 hPa | 0 mm | - | - | - |
| 1776937641 | 14.44° C | 45% | 5024.6 hPa | 0 mm | - | - | - |
* Rain latest hour (hover to see other rain measurements)
** Current wind speed in m/s (hover to see current wind gust speed)